This is the latest recevied weather packets stored in our database for station/object SV9TNF-57. If no packets are shown the sender has not sent any weather packets the latest 10 day(s).
| Time | Temp. | Humidity | Pressure | Rain* | Wind** | Luminosity | Snow |
|---|---|---|---|---|---|---|---|
| 1788374932 | 27.78° C | 43% | 995.3 hPa | 0 mm | 0 m/s | - | - |
| 1788374632 | 27.78° C | 45% | 995.4 hPa | 0 mm | 0 m/s | - | - |
| 1788374332 | 27.22° C | 46% | 995.3 hPa | 0 mm | 0 m/s | - | - |
| 1788374056 | 27.22° C | 47% | 995.3 hPa | 0 mm | 0 m/s | - | - |
| 1788373731 | 26.67° C | 51% | 995.2 hPa | 0 mm | 0 m/s | - | - |
| 1788373431 | 26.67° C | 64% | 995.2 hPa | 0 mm | 0 m/s | - | - |
| 1788373131 | 27.78° C | 67% | 995.1 hPa | 0 mm | 0 m/s | - | - |
| 1788372831 | 27.78° C | 65% | 995.1 hPa | 0 mm | 0 m/s | - | - |
| 1788372531 | 27.78° C | 46% | 995.1 hPa | 0 mm | 0 m/s | - | - |
| 1788372231 | 27.78° C | 47% | 995 hPa | 0 mm | 0 m/s | - | - |
| 1788371931 | 27.78° C | 49% | 995 hPa | 0 mm | 0 m/s | - | - |
| 1788371630 | 27.22° C | 52% | 995.1 hPa | 0 mm | 0 m/s | - | - |
| 1788371331 | 27.22° C | 52% | 995 hPa | 0 mm | 0 m/s | - | - |
| 1788371031 | 26.67° C | 55% | 994.9 hPa | 0 mm | 0 m/s | - | - |
| 1788370730 | 27.22° C | 67% | 994.8 hPa | 0 mm | 0 m/s | - | - |
| 1788370430 | 27.22° C | 70% | 994.9 hPa | 0 mm | 0 m/s | - | - |
| 1788370130 | 27.78° C | 69% | 994.8 hPa | 0 mm | 0 m/s | - | - |
| 1788369830 | 27.78° C | 68% | 994.9 hPa | 0 mm | 0 m/s | - | - |
| 1788369530 | 27.78° C | 66% | 994.7 hPa | 0 mm | 0 m/s | - | - |
| 1788369230 | 27.78° C | 65% | 994.7 hPa | 0 mm | 0 m/s | - | - |
| 1788368930 | 28.33° C | 62% | 994.6 hPa | 0 mm | 0.45 m/s, 210° | - | - |
| 1788368629 | 28.33° C | 49% | 994.6 hPa | 0 mm | 0 m/s | - | - |
| 1788368329 | 28.33° C | 49% | 994.4 hPa | 0 mm | 0 m/s | - | - |
| 1788368029 | 28.33° C | 48% | 994.6 hPa | 0 mm | 0 m/s | - | - |
| 1788367729 | 28.89° C | 47% | 994.5 hPa | 0 mm | 0 m/s | - | - |
* Rain latest hour (hover to see other rain measurements)
** Current wind speed in m/s (hover to see current wind gust speed)